Regional Weather Roundup
Issued by NWS Sterling, VA

Home | Current Version | Previous Version | Text Only | Print | Product List | Glossary Off
Versions: 1 2 3 4 5 6 7 8 9 10 11 12 13 14 15 16 17 18 19 20 21 22 23 24 25 26 27 28 29 30 31 32 33 34 35 36 37 38 39 40 41 42 43 44 45 46 47 48 49 50

000
ASUS41 KLWX 052210
RWRLWX

REGIONAL WEATHER ROUNDUP
NATIONAL WEATHER SERVICE BALTIMORE MD/WASHINGTON DC
600 PM EDT SUN JUL 05 2015

Note: "FAIR" indicates few or no clouds below 12,000 feet
with no significant weather and/or obstructions to visibility.
 TC=TEMPERATURE CELSIUS

 * =Non NWS site. Station does not report precipitation (e.g. rain,
    snow, etc.), thunder, or fog.

DCZ001-MDZ009-015-VAZ040>042-051-053>054-052300-
WASHINGTON METRO

CITY           SKY/WX    TMP DP  RH WIND       PRES   REMARKS
WASHINGTON NAT CLOUDY    83  71  67 SE6       30.10S
DULLES         CLOUDY    80  69  69 S5        30.10F
ANDREWS AFB    PTSUNNY   79  75  86 E8        30.09F
FT BELVOIR     CLOUDY    82  72  71 S6        30.09F
QUANTICO       CLOUDY    82  70  66 E3        30.10F
COLLEGE PARK*  PTSUNNY   82  70  65 E5        30.09F
LEESBURG*      CLOUDY    81  73  78 SW10      30.11S
MANASSAS*      SUNNY     81  72  74 CALM      30.10S
GAITHERSBURG*  PTSUNNY   79  68  69 CALM      30.14F

$$

MDZ006>007-011-014-052300-
BALTIMORE METRO

CITY           SKY/WX    TMP DP  RH WIND       PRES   REMARKS
BWI AIRPORT    CLOUDY    80  68  66 SE6       30.09F
MD SCIENCE CTR   N/A     81  67  62 MISG      30.11S
MARTIN STATE   MOSUNNY   81  70  69 E5        30.21R
ANNAPOLIS      PTSUNNY   79  67  66 SE7       30.10F
FORT MEADE*    MOSUNNY   79  68  69 SE5       30.12F

$$

MDZ012-015-019>023-052300-
MARYLAND EASTERN SHORE

CITY           SKY/WX    TMP DP  RH WIND       PRES   REMARKS
OCEAN CITY     MOSUNNY   76  69  79 SE7       30.12F
SALISBURY      MOSUNNY   81  72  74 SE7       30.11S
BAY BRIDGE AP*   N/A     79  68  69 W5        30.10F
CAMBRIDGE*     PTSUNNY   82  66  57 CALM      30.10S
EASTON*        PTSUNNY   82  73  74 CALM      30.14

$$

MDZ017>025-052300-
SOUTHERN MARYLAND

CITY           SKY/WX    TMP DP  RH WIND       PRES   REMARKS
PATUXENT RIVER PTSUNNY   80  69  69 SE8       30.10F
ST INIGOES     NOT AVBL
LEONARDTOWN*   MOSUNNY   79  68  69 E6        30.11F

$$

MDZ003>005-052300-
NORTH CENTRAL MARYLAND

CITY           SKY/WX    TMP DP  RH WIND       PRES   REMARKS
FREDERICK*     NOT AVBL
HAGERSTOWN APT PTSUNNY   81  63  54 SE7       30.11S
WESTMINSTER*   PTSUNNY   81  72  74 CALM      30.13S

$$

MDZ501>502-052300-
WESTERN MARYLAND

CITY           SKY/WX    TMP DP  RH WIND       PRES   REMARKS
OAKLAND*       PTSUNNY   68 N/A N/A SE7       30.19S
CUMBERLAND*    PTSUNNY   81  64  57 E6        30.13F

$$

VAZ025>031-052300-
SHENANDOAH VALLEY

CITY           SKY/WX    TMP DP  RH WIND       PRES   REMARKS
WINCHESTER*    PTSUNNY   81  70  69 S7        30.11S
FRONT ROYAL*   FAIR      77  70  78 SE3       30.10S
LURAY*         FAIR      82  68  61 SE3       30.10F
NEW MARKET*    FAIR      80  68  67 S5        30.09S
STAUNTON*      PTSUNNY   81  68  65 E3        30.14S
WAYNESBORO*    MOCLDY    76  69  78 SE7       30.14R

$$

WVZ021-048>050-054>055-052300-
EASTERN WEST VIRGINIA PANHANDLE

CITY           SKY/WX    TMP DP  RH WIND       PRES   REMARKS
MARTINSBURG    PTSUNNY   79  67  66 SE7       30.11S
PETERSBURG*    PTSUNNY   81  65  58 S8        30.10S

$$

VAZ036>039-050-052300-
CENTRAL FOOTHILLS

CITY           SKY/WX    TMP DP  RH WIND       PRES   REMARKS
CHARLOTTESVILL PTSUNNY   79  69  71 E6        30.10F
CULPEPER*      CLOUDY    79  71  77 CALM      30.10F
ORANGE*        CLOUDY    81  70  69 CALM      30.11F
GORDONSVILLE*  FAIR      79  70  73 CALM      30.09F
WARRENTON*     PTSUNNY   81  73  76 E5        30.10S

$$

VAZ055>057-052300-
NORTH AND CENTRAL PIEDMONT

CITY           SKY/WX    TMP DP  RH WIND       PRES   REMARKS
FREDERICKSBRG* CLOUDY    83  73  73 E6        30.08F
STAFFORD*      CLOUDY    79  71  74 E5        30.13F

$$

NCZ024-NYZ072-PAZ021-071-VAZ022-071-052300-
OTHER REGIONAL OBSERVATIONS

CITY           SKY/WX    TMP DP  RH WIND       PRES   REMARKS
NEW YORK CITY  SUNNY     81  62  52 VRB3      30.12S
PHILADELPHIA   MOSUNNY   84  63  49 S8        30.11S
PITTSBURGH     PTSUNNY   81  59  47 NE9       30.09F
ROANOKE        LGT RAIN  76  70  82 SE14      30.11R
RICHMOND       CLOUDY    82  72  71 E7        30.08F
RALEIGH        PTSUNNY   83  68  60 S15G22    30.06F

$$

ANZ530>537-052300-
MARINE OBSERVATIONS

STATION/POSITION TIME  TEMP    WIND        PRES
                       AIR SEA DIR/SP/G
                 (UTC) (F)     (DEG/KT/KT) (MB)
THOMAS PT LIGHT  2100   78     180/  1       N/A
BALT KEY BRIDGE  2100   78     110/  9/ 11 1019.4F
COVE POINT       2100   77     190/  8/  9 1020.3F
LEWISETTA        2100   78 80  110/  8/  9 1019.1F
SOLOMONS ISLAND  2100      82                N/A
PINEY POINT      2100          120/  8/  9   N/A

$$



USA.gov is the U.S. government's official web portal to all federal, state and local government web resources and services.